contact:dominique.lefevre@mio.osupytheas.fr, maurice.libes@osupytheas.fr, didier.mallarino@osupytheas.fr
Project:EMSO http://www.emso-fr.org/EMSO-France
Depth: 2436.0 m
Title:EMSO Ligure Ouest : Data MII capteur AQUADOPP
Date,Latitude,Longitude,X_East,Y_North,Z_Up,Amplitude_X,Amplitude_Y,Amplitude_Z,Batterie,SoundSpeed,Heading,Pitch,Roll,Pressure,TIS,Speed,Direction
, degrees North, degrees East, m.s-1, m.s-1,m.s-1, 1, 1, 1, Volt, m.s-1, degree, degree, degree, dbar, degree_C, m.s-1, degree
2023-06-18T00:04:03,42.805,6.029,-0.06,-0.025,-0.04,102.0,101.0,102.0,13.3,1505.2,329.9,-0.8,1.8,2471.51,13.28,0.064,247.4
2023-06-18T00:07:03,42.805,6.029,-0.035,-0.03,-0.032,102.0,101.0,102.0,13.4,1505.2,335.0,-0.8,1.9,2471.458,13.28,0.046,229.4
2023-06-18T00:10:03,42.805,6.029,-0.022,-0.024,-0.042,101.0,101.0,102.0,13.4,1505.2,327.8,-0.8,1.8,2471.469,13.29,0.032,222.5
2023-06-18T00:13:03,42.805,6.029,-0.041,-0.018,-0.029,102.0,101.0,101.0,13.4,1505.2,326.3,-0.8,1.8,2471.431,13.29,0.044,246.3
2023-06-18T00:16:03,42.805,6.029,-0.044,-0.019,-0.05,103.0,100.0,102.0,13.4,1505.2,341.9,-0.8,1.8,2471.458,13.29,0.047,246.6
2023-06-18T00:19:03,42.805,6.029,-0.03,-0.02,-0.046,102.0,104.0,101.0,13.3,1505.2,332.9,-0.8,1.8,2471.44,13.29,0.036,236.3
2023-06-18T00:22:03,42.805,6.029,-0.023,-0.023,-0.074,103.0,101.0,102.0,13.4,1505.2,322.3,-0.8,1.8,2471.457,13.29,0.032,225.0
2023-06-18T00:25:03,42.805,6.029,-0.025,-0.017,-0.04,101.0,102.0,103.0,13.4,1505.2,322.1,-0.8,1.8,2471.462,13.29,0.03,235.8
2023-06-18T00:28:03,42.805,6.029,-0.028,-0.029,-0.063,102.0,101.0,102.0,13.3,1505.2,329.8,-0.8,1.8,2471.445,13.29,0.04,224.0
2023-06-18T00:31:03,42.805,6.029,-0.023,-0.034,-0.054,102.0,101.0,101.0,13.4,1505.2,326.8,-0.8,1.8,2471.426,13.29,0.041,214.1
2023-06-18T00:34:03,42.805,6.029,-0.053,-0.003,-0.023,102.0,101.0,101.0,13.4,1505.2,334.4,-0.7,1.9,2471.442,13.29,0.053,266.8
2023-06-18T00:37:03,42.805,6.029,-0.031,-0.007,-0.06,102.0,101.0,102.0,13.4,1505.2,343.6,-0.8,1.8,2471.43,13.29,0.031,257.3
2023-06-18T00:40:03,42.805,6.029,-0.021,-0.018,-0.042,102.0,103.0,101.0,13.4,1505.2,321.9,-0.8,1.8,2471.44,13.29,0.027,229.4
2023-06-18T00:43:03,42.805,6.029,-0.038,-0.001,-0.041,102.0,102.0,102.0,13.4,1505.2,339.7,-0.8,1.8,2471.429,13.29,0.038,268.5
2023-06-18T00:46:03,42.805,6.029,-0.047,-0.019,-0.075,104.0,100.0,101.0,13.3,1505.2,348.9,-0.8,1.8,2471.416,13.29,0.05,248.0
2023-06-18T00:49:03,42.805,6.029,-0.022,-0.01,-0.073,101.0,104.0,102.0,13.3,1505.2,340.2,-0.8,1.8,2471.43,13.29,0.024,245.6
2023-06-18T00:52:03,42.805,6.029,-0.036,-0.009,-0.039,102.0,103.0,101.0,13.4,1505.2,331.6,-0.8,1.8,2471.409,13.29,0.037,256.0
2023-06-18T00:55:03,42.805,6.029,-0.038,-0.016,-0.05,102.0,100.0,102.0,13.4,1505.2,337.5,-0.8,1.8,2471.392,13.29,0.041,247.2
2023-06-18T00:58:03,42.805,6.029,-0.032,-0.018,-0.027,101.0,103.0,101.0,13.4,1505.2,338.6,-0.8,1.8,2471.436,13.29,0.036,240.6
2023-06-18T01:04:03,42.805,6.029,-0.038,-0.002,-0.08,103.0,102.0,102.0,13.3,1505.2,324.3,-0.8,1.8,2471.429,13.28,0.038,267.0
2023-06-18T01:07:03,42.805,6.029,-0.043,0.008,-0.062,102.0,101.0,101.0,13.3,1505.2,345.0,-0.8,1.8,2471.474,13.28,0.043,280.5
2023-06-18T01:10:03,42.805,6.029,-0.041,-0.025,-0.067,102.0,101.0,103.0,13.3,1505.2,322.7,-0.8,1.8,2471.435,13.29,0.048,238.6
2023-06-18T01:13:03,42.805,6.029,-0.058,-0.011,-0.048,102.0,101.0,101.0,13.4,1505.2,337.1,-0.8,1.8,2471.41,13.29,0.059,259.3
2023-06-18T01:16:03,42.805,6.029,-0.018,-0.011,-0.04,103.0,101.0,101.0,13.3,1505.2,336.1,-0.8,1.8,2471.402,13.29,0.021,238.6
2023-06-18T01:19:03,42.805,6.029,-0.006,-0.01,-0.046,102.0,102.0,100.0,13.4,1505.2,345.6,-0.8,1.8,2471.424,13.29,0.011,211.0
2023-06-18T01:22:02,42.805,6.029,-0.016,-0.024,-0.064,101.0,102.0,101.0,13.4,1505.2,323.1,-0.8,1.8,2471.407,13.29,0.028,213.7
2023-06-18T01:25:03,42.805,6.029,-0.03,-0.017,-0.054,102.0,102.0,99.0,13.4,1505.2,339.3,-0.8,1.8,2471.399,13.29,0.034,240.5
2023-06-18T01:28:03,42.805,6.029,-0.029,-0.026,-0.066,101.0,102.0,101.0,13.3,1505.2,331.9,-0.8,1.8,2471.438,13.29,0.038,228.1
2023-06-18T01:31:03,42.805,6.029,-0.017,-0.026,-0.077,101.0,101.0,101.0,13.3,1505.2,328.8,-0.8,1.7,2471.42,13.29,0.031,213.2
2023-06-18T01:34:03,42.805,6.029,-0.039,-0.006,-0.048,102.0,101.0,101.0,13.4,1505.2,349.7,-0.8,1.8,2471.389,13.29,0.039,261.3
2023-06-18T01:37:03,42.805,6.029,0.009,-0.022,-0.052,101.0,102.0,101.0,13.4,1505.2,324.3,-0.8,1.8,2471.418,13.29,0.023,157.8
2023-06-18T01:40:03,42.805,6.029,-0.023,-0.025,-0.031,103.0,99.0,102.0,13.3,1505.2,330.7,-0.8,1.8,2471.394,13.29,0.033,222.6
2023-06-18T01:43:03,42.805,6.029,-0.05,-0.018,-0.049,101.0,101.0,100.0,13.3,1505.2,333.4,-0.8,1.8,2471.381,13.29,0.053,250.2
2023-06-18T01:46:03,42.805,6.029,-0.031,-0.018,-0.032,102.0,102.0,100.0,13.4,1505.2,321.6,-0.7,1.8,2471.414,13.29,0.035,239.9
2023-06-18T01:49:03,42.805,6.029,-0.029,-0.007,-0.043,101.0,101.0,101.0,13.4,1505.2,330.5,-0.8,1.8,2471.376,13.29,0.029,256.4
2023-06-18T01:52:03,42.805,6.029,-0.018,-0.032,-0.094,101.0,101.0,100.0,13.4,1505.2,335.5,-0.8,1.9,2471.383,13.29,0.036,209.4
2023-06-18T01:55:03,42.805,6.029,-0.015,-0.001,-0.033,101.0,101.0,100.0,13.3,1505.2,341.5,-0.8,1.8,2471.402,13.29,0.015,266.2
2023-06-18T01:58:03,42.805,6.029,-0.037,-0.013,-0.033,101.0,101.0,101.0,13.4,1505.2,321.9,-0.7,1.8,2471.382,13.29,0.039,250.6
2023-06-18T02:04:03,42.805,6.029,-0.034,-0.024,-0.054,101.0,100.0,102.0,13.3,1505.2,328.1,-0.8,1.8,2471.441,13.28,0.041,234.8
2023-06-18T02:07:03,42.805,6.029,-0.058,-0.022,-0.075,102.0,100.0,103.0,13.3,1505.2,338.6,-0.7,1.8,2471.414,13.28,0.062,249.2
2023-06-18T02:10:03,42.805,6.029,-0.039,-0.003,-0.032,101.0,100.0,101.0,13.4,1505.2,338.8,-0.8,1.8,2471.451,13.28,0.039,265.6
2023-06-18T02:13:03,42.805,6.029,-0.018,-0.026,-0.027,101.0,102.0,101.0,13.4,1505.2,339.3,-0.8,1.8,2471.422,13.29,0.031,214.7
2023-06-18T02:16:03,42.805,6.029,-0.01,-0.022,-0.094,100.0,102.0,101.0,13.4,1505.2,326.8,-0.8,1.8,2471.421,13.29,0.024,204.4
2023-06-18T02:19:03,42.805,6.029,-0.007,-0.015,-0.056,101.0,102.0,100.0,13.3,1505.2,343.9,-0.8,1.8,2471.386,13.29,0.016,205.0
2023-06-18T02:22:03,42.805,6.029,-0.028,-0.016,-0.064,101.0,101.0,102.0,13.4,1505.2,322.2,-0.8,1.8,2471.349,13.29,0.032,240.3
2023-06-18T02:25:03,42.805,6.029,-0.042,-0.025,-0.043,100.0,101.0,101.0,13.4,1505.2,337.0,-0.8,1.8,2471.404,13.29,0.048,239.2
2023-06-18T02:28:03,42.805,6.029,-0.03,-0.008,-0.033,99.0,102.0,101.0,13.4,1505.2,337.2,-0.8,1.8,2471.405,13.29,0.031,255.1
2023-06-18T02:31:03,42.805,6.029,-0.052,-0.025,-0.055,99.0,103.0,102.0,13.4,1505.2,325.7,-0.8,1.8,2471.398,13.29,0.057,244.3
2023-06-18T02:34:03,42.805,6.029,-0.032,-0.008,-0.056,101.0,101.0,101.0,13.4,1505.2,328.2,-0.7,1.8,2471.441,13.29,0.032,256.0
2023-06-18T02:37:03,42.805,6.029,-0.05,-0.011,-0.072,100.0,102.0,101.0,13.3,1505.2,333.9,-0.8,1.8,2471.393,13.29,0.051,257.6
2023-06-18T02:40:03,42.805,6.029,-0.008,-0.041,-0.045,102.0,101.0,103.0,13.4,1505.2,329.5,-0.8,1.8,2471.401,13.29,0.041,191.0
2023-06-18T02:43:03,42.805,6.029,-0.026,-0.023,-0.042,102.0,101.0,101.0,13.4,1505.2,332.5,-0.8,1.8,2471.38,13.29,0.034,228.5
2023-06-18T02:46:03,42.805,6.029,-0.05,-0.022,-0.048,102.0,100.0,102.0,13.3,1505.2,342.3,-0.8,1.8,2471.383,13.29,0.054,246.3
2023-06-18T02:49:03,42.805,6.029,-0.039,-0.031,-0.071,102.0,101.0,101.0,13.4,1505.2,334.9,-0.8,1.8,2471.39,13.29,0.049,231.5
2023-06-18T02:52:03,42.805,6.029,-0.019,-0.037,-0.04,101.0,101.0,101.0,13.4,1505.2,349.9,-0.7,1.8,2471.395,13.29,0.041,207.2
2023-06-18T02:55:03,42.805,6.029,-0.061,0.003,-0.039,101.0,101.0,101.0,13.4,1505.2,337.7,-0.8,1.8,2471.397,13.29,0.061,272.8
2023-06-18T02:58:03,42.805,6.029,-0.041,0.0,-0.047,101.0,102.0,100.0,13.3,1505.2,341.5,-0.8,1.8,2471.419,13.29,0.041,270.0
2023-06-18T03:04:03,42.805,6.029,0.008,-0.042,-0.052,102.0,102.0,101.0,13.4,1505.2,330.1,-0.8,1.8,2471.405,13.28,0.042,169.2
2023-06-18T03:07:03,42.805,6.029,-0.008,-0.048,-0.04,101.0,102.0,101.0,13.4,1505.2,345.7,-0.7,1.8,2471.424,13.28,0.048,189.5
2023-06-18T03:10:03,42.805,6.029,-0.039,-0.021,-0.051,103.0,102.0,101.0,13.4,1505.2,348.2,-0.8,1.8,2471.417,13.29,0.044,241.7
2023-06-18T03:13:03,42.805,6.029,-0.024,-0.041,-0.052,101.0,101.0,102.0,13.3,1505.2,335.5,-0.8,1.8,2471.379,13.29,0.047,210.3
2023-06-18T03:16:03,42.805,6.029,-0.014,-0.033,-0.044,102.0,102.0,101.0,13.4,1505.2,332.5,-0.8,1.9,2471.463,13.29,0.035,203.0
2023-06-18T03:19:03,42.805,6.029,-0.016,-0.018,-0.059,102.0,101.0,102.0,13.4,1505.2,332.1,-0.8,1.8,2471.421,13.29,0.024,221.6
2023-06-18T03:22:03,42.805,6.029,-0.021,-0.042,-0.035,101.0,101.0,101.0,13.3,1505.2,326.0,-0.8,1.8,2471.396,13.29,0.046,206.6
2023-06-18T03:25:03,42.805,6.029,-0.004,-0.032,-0.034,102.0,102.0,102.0,13.4,1505.2,327.5,-0.8,1.8,2471.418,13.29,0.032,187.1
2023-06-18T03:28:03,42.805,6.029,-0.021,-0.018,0.013,101.0,101.0,101.0,13.3,1505.2,342.2,-0.8,1.8,2471.437,13.29,0.027,229.4
2023-06-18T03:31:03,42.805,6.029,-0.043,-0.049,-0.081,100.0,102.0,102.0,13.4,1505.2,340.0,-0.8,1.8,2471.418,13.29,0.065,221.3
2023-06-18T03:34:03,42.805,6.029,-0.044,-0.038,-0.062,103.0,101.0,101.0,13.4,1505.2,328.6,-0.8,1.9,2471.453,13.29,0.058,229.2
2023-06-18T03:37:03,42.805,6.029,-0.013,-0.042,-0.048,101.0,103.0,102.0,13.4,1505.2,340.8,-0.8,1.8,2471.423,13.29,0.043,197.2
2023-06-18T03:40:03,42.805,6.029,-0.035,-0.032,-0.053,103.0,101.0,101.0,13.3,1505.2,331.4,-0.8,1.8,2471.421,13.29,0.047,227.6
2023-06-18T03:43:03,42.805,6.029,-0.035,-0.045,-0.086,102.0,101.0,101.0,13.4,1505.2,344.7,-0.7,1.8,2471.411,13.29,0.057,217.9
2023-06-18T03:46:03,42.805,6.029,-0.036,-0.033,-0.071,102.0,101.0,102.0,13.3,1505.2,328.1,-0.8,1.8,2471.38,13.29,0.048,227.5
2023-06-18T03:49:03,42.805,6.029,-0.025,-0.036,-0.039,102.0,101.0,101.0,13.4,1505.2,323.7,-0.8,1.8,2471.431,13.29,0.043,214.8
2023-06-18T03:52:03,42.805,6.029,-0.008,-0.037,-0.045,102.0,102.0,101.0,13.4,1505.2,329.9,-0.8,1.8,2471.411,13.29,0.037,192.2
2023-06-18T03:55:03,42.805,6.029,-0.028,0.018,-0.008,103.0,101.0,100.0,13.4,1505.2,347.4,-0.8,1.8,2471.401,13.29,0.033,302.7
2023-06-18T03:58:03,42.805,6.029,-0.025,-0.004,-0.054,101.0,102.0,101.0,13.4,1505.2,343.9,-0.8,1.8,2471.434,13.29,0.025,260.9
2023-06-18T04:04:03,42.805,6.029,-0.016,-0.035,-0.051,101.0,101.0,101.0,13.4,1505.2,335.2,-0.8,1.8,2471.436,13.28,0.038,204.6
2023-06-18T04:07:03,42.805,6.029,-0.048,-0.03,-0.071,102.0,101.0,101.0,13.4,1505.2,342.5,-0.8,1.8,2471.489,13.28,0.056,238.0
2023-06-18T04:10:03,42.805,6.029,-0.034,-0.045,-0.051,102.0,102.0,100.0,13.4,1505.2,329.0,-0.7,1.8,2471.466,13.29,0.056,217.1
2023-06-18T04:13:03,42.805,6.029,-0.031,-0.053,-0.077,101.0,101.0,101.0,13.4,1505.2,322.9,-0.8,1.8,2471.457,13.29,0.061,210.3
2023-06-18T04:16:03,42.805,6.029,-0.037,-0.017,-0.046,101.0,101.0,101.0,13.4,1505.2,332.1,-0.8,1.8,2471.431,13.29,0.04,245.3
2023-06-18T04:19:03,42.805,6.029,-0.03,-0.039,-0.056,102.0,101.0,101.0,13.3,1505.2,336.2,-0.8,1.8,2471.443,13.29,0.049,217.6
2023-06-18T04:22:03,42.805,6.029,-0.03,-0.031,-0.035,100.0,102.0,101.0,13.3,1505.2,339.7,-0.7,1.8,2471.422,13.29,0.043,224.1
2023-06-18T04:25:03,42.805,6.029,-0.019,-0.064,-0.065,102.0,101.0,101.0,13.3,1505.2,327.5,-0.8,1.8,2471.447,13.29,0.066,196.5
2023-06-18T04:28:03,42.805,6.029,-0.024,-0.02,-0.032,101.0,100.0,101.0,13.3,1505.2,325.0,-0.8,1.8,2471.461,13.29,0.031,230.2
2023-06-18T04:31:03,42.805,6.029,-0.031,-0.024,-0.035,103.0,101.0,102.0,13.4,1505.2,328.5,-0.8,1.8,2471.447,13.29,0.039,232.3
2023-06-18T04:34:03,42.805,6.029,0.001,-0.058,-0.081,103.0,101.0,101.0,13.4,1505.2,330.3,-0.7,1.8,2471.481,13.29,0.058,179.0
2023-06-18T04:37:03,42.805,6.029,-0.033,-0.043,-0.071,103.0,100.0,101.0,13.4,1505.2,326.3,-0.8,1.8,2471.45,13.29,0.054,217.5
2023-06-18T04:40:03,42.805,6.029,-0.03,-0.023,-0.04,102.0,102.0,101.0,13.4,1505.2,325.7,-0.8,1.8,2471.451,13.29,0.037,232.5
2023-06-18T04:43:03,42.805,6.029,-0.016,-0.037,-0.076,102.0,101.0,100.0,13.4,1505.2,346.5,-0.8,1.8,2471.471,13.29,0.04,203.4
2023-06-18T04:46:03,42.805,6.029,-0.023,-0.022,-0.032,102.0,100.0,100.0,13.4,1505.2,323.3,-0.8,1.8,2471.445,13.29,0.031,226.3
2023-06-18T04:49:03,42.805,6.029,-0.021,-0.03,-0.067,102.0,101.0,100.0,13.3,1505.2,339.7,-0.8,1.9,2471.462,13.29,0.036,215.0
2023-06-18T04:52:03,42.805,6.029,-0.031,-0.046,-0.084,102.0,100.0,102.0,13.4,1505.2,320.5,-0.7,1.8,2471.44,13.29,0.055,214.0
2023-06-18T04:55:03,42.805,6.029,-0.033,-0.021,-0.058,102.0,101.0,100.0,13.4,1505.2,345.4,-0.8,1.8,2471.479,13.29,0.039,237.5
2023-06-18T04:58:03,42.805,6.029,-0.032,-0.034,-0.086,102.0,101.0,101.0,13.4,1505.2,341.9,-0.7,1.8,2471.467,13.29,0.046,223.3
2023-06-18T05:04:03,42.805,6.029,-0.026,-0.043,-0.06,101.0,102.0,100.0,13.4,1505.2,333.4,-0.8,1.8,2471.513,13.28,0.05,211.2
2023-06-18T05:07:03,42.805,6.029,-0.031,-0.042,-0.071,101.0,101.0,101.0,13.4,1505.2,320.7,-0.8,1.8,2471.532,13.28,0.052,216.4
2023-06-18T05:10:03,42.805,6.029,-0.046,-0.038,-0.061,103.0,101.0,102.0,13.4,1505.2,340.1,-0.8,1.8,2471.503,13.28,0.059,230.4
2023-06-18T05:13:03,42.805,6.029,-0.016,-0.046,-0.062,101.0,100.0,100.0,13.4,1505.2,330.3,-0.8,1.8,2471.506,13.29,0.048,199.2
2023-06-18T05:16:03,42.805,6.029,-0.032,-0.038,-0.069,101.0,102.0,100.0,13.4,1505.2,325.7,-0.8,1.8,2471.521,13.29,0.049,220.1
2023-06-18T05:19:03,42.805,6.029,-0.011,-0.02,-0.039,102.0,102.0,101.0,13.3,1505.2,327.8,-0.7,1.8,2471.491,13.29,0.022,208.8
2023-06-18T05:22:03,42.805,6.029,0.0,-0.043,-0.072,101.0,102.0,100.0,13.3,1505.2,325.6,-0.7,1.8,2471.5,13.29,0.043,180.0
2023-06-18T05:25:03,42.805,6.029,-0.032,-0.038,-0.089,101.0,100.0,100.0,13.4,1505.2,339.8,-0.8,1.8,2471.479,13.29,0.049,220.1
2023-06-18T05:28:03,42.805,6.029,-0.037,-0.051,-0.076,103.0,100.0,101.0,13.4,1505.2,338.4,-0.8,1.8,2471.487,13.29,0.063,216.0
2023-06-18T05:31:03,42.805,6.029,-0.022,-0.032,-0.045,102.0,101.0,101.0,13.4,1505.2,321.7,-0.7,1.8,2471.495,13.29,0.038,214.5
2023-06-18T05:34:03,42.805,6.029,-0.007,-0.027,-0.059,101.0,101.0,101.0,13.4,1505.2,342.9,-0.8,1.9,2471.502,13.29,0.027,194.5
2023-06-18T05:37:03,42.805,6.029,-0.013,-0.019,-0.055,102.0,102.0,101.0,13.4,1505.2,335.5,-0.8,1.8,2471.505,13.29,0.023,214.4
2023-06-18T05:40:03,42.805,6.029,0.0,-0.015,-0.023,102.0,101.0,101.0,13.4,1505.2,323.8,-0.8,1.8,2471.472,13.29,0.015,180.0
2023-06-18T05:43:03,42.805,6.029,-0.019,-0.035,-0.074,101.0,102.0,101.0,13.3,1505.2,326.3,-0.8,1.8,2471.503,13.29,0.039,208.5
2023-06-18T05:46:03,42.805,6.029,-0.03,-0.022,-0.028,101.0,103.0,100.0,13.4,1505.2,344.6,-0.8,1.8,2471.464,13.29,0.037,233.7
2023-06-18T05:49:03,42.805,6.029,-0.031,-0.015,-0.03,100.0,103.0,102.0,13.3,1505.2,344.7,-0.8,1.8,2471.504,13.29,0.034,244.2
2023-06-18T05:52:03,42.805,6.029,-0.025,-0.023,-0.027,100.0,102.0,101.0,13.4,1505.2,326.0,-0.8,1.8,2471.482,13.29,0.033,227.4
2023-06-18T05:55:03,42.805,6.029,-0.007,-0.032,-0.059,102.0,100.0,102.0,13.4,1505.2,328.5,-0.7,1.8,2471.513,13.29,0.032,192.3
2023-06-18T05:58:03,42.805,6.029,-0.041,-0.009,-0.083,102.0,101.0,101.0,13.3,1505.2,336.8,-0.7,1.9,2471.531,13.29,0.041,257.6
2023-06-18T06:04:03,42.805,6.029,-0.01,-0.011,-0.017,102.0,100.0,102.0,13.4,1505.2,338.8,-0.7,1.8,2471.539,13.28,0.014,222.3
2023-06-18T06:07:03,42.805,6.029,-0.035,-0.011,-0.049,102.0,102.0,102.0,13.3,1505.2,335.9,-0.8,1.8,2471.508,13.28,0.036,252.6
2023-06-18T06:10:03,42.805,6.029,-0.033,-0.041,-0.069,102.0,101.0,101.0,13.4,1505.2,332.5,-0.8,1.8,2471.535,13.28,0.052,218.8
2023-06-18T06:13:03,42.805,6.029,0.0,-0.049,-0.081,100.0,103.0,102.0,13.4,1505.2,329.7,-0.8,1.8,2471.539,13.29,0.049,180.0
2023-06-18T06:16:03,42.805,6.029,-0.037,-0.046,-0.072,101.0,101.0,101.0,13.4,1505.2,340.0,-0.8,1.8,2471.503,13.29,0.059,218.8
2023-06-18T06:19:03,42.805,6.029,-0.066,-0.021,-0.097,101.0,100.0,102.0,13.4,1505.2,350.1,-0.8,1.8,2471.53,13.29,0.069,252.4
2023-06-18T06:22:03,42.805,6.029,-0.052,-0.038,-0.073,102.0,103.0,100.0,13.4,1505.2,325.3,-0.7,1.8,2471.541,13.29,0.064,233.8
2023-06-18T06:25:03,42.805,6.029,-0.015,-0.037,-0.056,103.0,100.0,101.0,13.4,1505.2,337.3,-0.8,1.8,2471.507,13.29,0.039,202.1
2023-06-18T06:28:03,42.805,6.029,-0.016,-0.043,-0.037,102.0,101.0,102.0,13.3,1505.2,349.3,-0.8,1.8,2471.527,13.29,0.045,200.4
2023-06-18T06:31:03,42.805,6.029,-0.024,-0.044,-0.043,101.0,101.0,101.0,13.4,1505.2,334.2,-0.8,1.8,2471.512,13.29,0.05,208.6
2023-06-18T06:34:03,42.805,6.029,-0.002,-0.031,-0.101,102.0,101.0,101.0,13.3,1505.2,330.7,-0.8,1.8,2471.544,13.29,0.031,183.7
2023-06-18T06:37:03,42.805,6.029,-0.021,-0.015,-0.04,101.0,101.0,102.0,13.3,1505.2,346.8,-0.8,1.8,2471.523,13.29,0.025,234.5
2023-06-18T06:40:03,42.805,6.029,-0.023,-0.036,-0.072,100.0,103.0,100.0,13.3,1505.2,329.8,-0.8,1.8,2471.569,13.29,0.042,212.6
2023-06-18T06:43:03,42.805,6.029,-0.026,-0.016,-0.067,101.0,101.0,102.0,13.4,1505.2,343.5,-0.8,1.8,2471.508,13.29,0.03,238.4
2023-06-18T06:46:03,42.805,6.029,-0.024,-0.044,-0.038,101.0,102.0,101.0,13.4,1505.2,322.5,-0.8,1.8,2471.528,13.29,0.05,208.6
2023-06-18T06:49:03,42.805,6.029,-0.037,-0.026,-0.048,102.0,101.0,102.0,13.4,1505.2,337.2,-0.8,1.8,2471.477,13.29,0.045,234.9
2023-06-18T06:52:03,42.805,6.029,-0.033,-0.052,-0.099,102.0,102.0,101.0,13.4,1505.2,326.5,-0.8,1.8,2471.511,13.29,0.061,212.4
2023-06-18T06:55:03,42.805,6.029,-0.024,-0.02,-0.069,102.0,100.0,101.0,13.4,1505.2,335.1,-0.8,1.8,2471.522,13.29,0.031,230.2
2023-06-18T06:58:03,42.805,6.029,-0.025,-0.043,-0.052,102.0,102.0,101.0,13.4,1505.2,335.8,-0.8,1.8,2471.52,13.29,0.049,210.2
2023-06-18T07:04:03,42.805,6.029,-0.062,-0.026,-0.05,102.0,101.0,101.0,13.4,1505.2,327.2,-0.7,1.8,2471.53,13.28,0.067,247.3
2023-06-18T07:07:03,42.805,6.029,-0.043,-0.022,-0.043,102.0,102.0,101.0,13.4,1505.2,347.0,-0.8,1.8,2471.558,13.28,0.048,242.9
2023-06-18T07:10:03,42.805,6.029,-0.045,-0.016,-0.056,102.0,101.0,101.0,13.4,1505.2,326.0,-0.8,1.8,2471.553,13.28,0.047,250.4
2023-06-18T07:13:03,42.805,6.029,-0.024,-0.037,-0.081,102.0,102.0,101.0,13.4,1505.2,338.2,-0.7,1.8,2471.553,13.28,0.044,213.0
2023-06-18T07:16:03,42.805,6.029,-0.052,0.001,-0.026,102.0,101.0,101.0,13.4,1505.2,333.4,-0.8,1.8,2471.551,13.29,0.052,271.1
2023-06-18T07:19:03,42.805,6.029,-0.011,-0.046,-0.03,102.0,102.0,101.0,13.4,1505.2,327.6,-0.8,1.8,2471.523,13.29,0.047,193.4
2023-06-18T07:22:03,42.805,6.029,-0.031,-0.047,-0.072,103.0,101.0,102.0,13.3,1505.2,347.2,-0.8,1.8,2471.508,13.29,0.056,213.4
2023-06-18T07:25:03,42.805,6.029,-0.027,-0.026,-0.059,103.0,102.0,102.0,13.4,1505.2,335.9,-0.8,1.8,2471.512,13.29,0.037,226.1
2023-06-18T07:28:03,42.805,6.029,-0.044,-0.057,-0.078,102.0,102.0,101.0,13.3,1505.2,325.1,-0.8,1.8,2471.522,13.29,0.072,217.7
2023-06-18T07:31:03,42.805,6.029,-0.01,-0.061,-0.092,100.0,100.0,102.0,13.3,1505.2,320.1,-0.8,1.8,2471.505,13.29,0.061,189.3
2023-06-18T07:34:03,42.805,6.029,-0.059,-0.062,-0.099,100.0,100.0,102.0,13.4,1505.2,335.0,-0.8,1.8,2471.483,13.29,0.085,223.6
2023-06-18T07:37:03,42.805,6.029,-0.061,-0.002,-0.061,102.0,102.0,100.0,13.3,1505.2,347.4,-0.8,1.8,2471.529,13.29,0.061,268.1
2023-06-18T07:40:03,42.805,6.029,-0.009,-0.036,-0.032,101.0,102.0,102.0,13.3,1505.2,322.7,-0.8,1.8,2471.466,13.29,0.037,194.0
2023-06-18T07:43:03,42.805,6.029,-0.045,-0.032,-0.058,101.0,103.0,101.0,13.4,1505.2,349.3,-0.8,1.8,2471.517,13.29,0.055,234.6
2023-06-18T07:46:03,42.805,6.029,-0.006,-0.064,-0.083,101.0,102.0,101.0,13.4,1505.2,331.3,-0.8,1.9,2471.504,13.29,0.064,185.4
2023-06-18T07:49:03,42.805,6.029,-0.039,-0.04,-0.042,103.0,102.0,102.0,13.4,1505.2,335.7,-0.7,1.8,2471.494,13.29,0.055,224.3
2023-06-18T07:52:03,42.805,6.029,-0.038,-0.044,-0.067,102.0,102.0,100.0,13.4,1505.2,337.1,-0.8,1.8,2471.52,13.29,0.058,220.8
2023-06-18T07:55:03,42.805,6.029,-0.027,-0.024,-0.037,103.0,101.0,102.0,13.3,1505.2,347.5,-0.8,1.8,2471.504,13.29,0.036,228.4
2023-06-18T07:58:03,42.805,6.029,-0.019,-0.045,-0.049,102.0,102.0,103.0,13.4,1505.2,336.8,-0.7,1.8,2471.51,13.29,0.048,202.9
2023-06-18T08:04:03,42.805,6.029,-0.01,-0.05,-0.057,102.0,102.0,101.0,13.3,1505.2,341.8,-0.8,1.8,2471.532,13.28,0.05,191.3
2023-06-18T08:07:03,42.805,6.029,-0.026,-0.046,-0.081,102.0,102.0,101.0,13.4,1505.2,336.6,-0.8,1.8,2471.556,13.28,0.052,209.5
2023-06-18T08:10:03,42.805,6.029,-0.035,-0.039,-0.035,103.0,102.0,102.0,13.4,1505.2,341.5,-0.8,1.8,2471.554,13.28,0.052,221.9
2023-06-18T08:13:03,42.805,6.029,-0.064,-0.029,-0.045,102.0,102.0,102.0,13.4,1505.2,340.8,-0.8,1.8,2471.508,13.28,0.07,245.6
2023-06-18T08:16:03,42.805,6.029,-0.047,-0.039,-0.052,102.0,101.0,101.0,13.4,1505.2,350.5,-0.8,1.8,2471.5,13.28,0.061,230.3
2023-06-18T08:19:03,42.805,6.029,-0.049,-0.034,-0.074,103.0,99.0,102.0,13.4,1505.2,327.1,-0.8,1.8,2471.491,13.29,0.059,235.2
2023-06-18T08:22:03,42.805,6.029,-0.051,-0.023,-0.061,103.0,102.0,102.0,13.3,1505.2,342.6,-0.8,1.9,2471.529,13.29,0.055,245.7
2023-06-18T08:25:03,42.805,6.029,-0.046,-0.037,-0.056,102.0,101.0,101.0,13.3,1505.2,346.5,-0.8,1.8,2471.515,13.29,0.059,231.2
2023-06-18T08:28:03,42.805,6.029,-0.013,-0.042,-0.071,102.0,101.0,101.0,13.4,1505.2,317.0,-0.8,1.8,2471.491,13.29,0.043,197.2
2023-06-18T08:31:03,42.805,6.029,-0.011,-0.07,-0.09,103.0,102.0,102.0,13.4,1505.2,323.9,-0.7,1.8,2471.474,13.29,0.07,188.9
2023-06-18T08:34:03,42.805,6.029,-0.051,-0.035,-0.074,102.0,102.0,102.0,13.3,1505.2,347.3,-0.8,1.8,2471.496,13.29,0.061,235.5
2023-06-18T08:37:03,42.805,6.029,-0.038,-0.037,-0.037,103.0,101.0,102.0,13.4,1505.2,333.4,-0.7,1.8,2471.49,13.29,0.053,225.8
2023-06-18T08:40:03,42.805,6.029,-0.032,-0.058,-0.086,102.0,102.0,101.0,13.3,1505.2,329.0,-0.7,1.8,2471.464,13.29,0.066,208.9
2023-06-18T08:43:03,42.805,6.029,-0.033,-0.021,-0.052,102.0,102.0,102.0,13.4,1505.2,336.1,-0.7,1.9,2471.453,13.29,0.039,237.5
2023-06-18T08:46:03,42.805,6.029,-0.02,-0.038,-0.083,102.0,102.0,101.0,13.4,1505.2,322.9,-0.7,1.8,2471.442,13.29,0.042,207.8
2023-06-18T08:49:03,42.805,6.029,-0.044,-0.025,-0.047,103.0,102.0,102.0,13.4,1505.2,325.7,-0.8,1.8,2471.479,13.29,0.05,240.4
2023-06-18T08:52:03,42.805,6.029,-0.034,-0.038,-0.085,103.0,102.0,101.0,13.3,1505.2,347.3,-0.8,1.8,2471.496,13.29,0.05,221.8
2023-06-18T08:55:03,42.805,6.029,-0.021,-0.046,-0.092,102.0,101.0,102.0,13.3,1505.2,327.8,-0.8,1.8,2471.462,13.29,0.05,204.5
2023-06-18T08:58:03,42.805,6.029,-0.044,-0.043,-0.069,103.0,102.0,101.0,13.3,1505.2,341.5,-0.8,1.8,2471.474,13.29,0.061,225.7
2023-06-18T09:04:03,42.805,6.029,-0.08,-0.027,-0.088,103.0,102.0,102.0,13.4,1505.2,336.1,-0.8,1.8,2471.509,13.28,0.084,251.4
2023-06-18T09:07:03,42.805,6.029,-0.025,-0.021,-0.069,102.0,104.0,101.0,13.4,1505.2,347.9,-0.8,1.8,2471.512,13.28,0.032,230.0
2023-06-18T09:10:03,42.805,6.029,-0.015,-0.05,-0.048,103.0,101.0,102.0,13.4,1505.2,325.0,-0.7,1.8,2471.475,13.28,0.052,196.7
2023-06-18T09:13:03,42.805,6.029,-0.066,0.019,-0.034,102.0,102.0,102.0,13.4,1505.2,339.7,-0.8,1.8,2471.454,13.28,0.068,286.1
2023-06-18T09:16:03,42.805,6.029,-0.043,-0.01,-0.04,103.0,101.0,102.0,13.3,1505.2,344.3,-0.8,1.8,2471.464,13.28,0.044,256.9
2023-06-18T09:19:03,42.805,6.029,-0.028,-0.023,-0.041,103.0,102.0,102.0,13.4,1505.2,335.2,-0.8,1.8,2471.493,13.29,0.036,230.6
2023-06-18T09:22:03,42.805,6.029,-0.073,-0.052,-0.111,101.0,101.0,101.0,13.4,1505.2,342.9,-0.7,1.8,2471.445,13.29,0.089,234.5
2023-06-18T09:25:03,42.805,6.029,-0.031,-0.04,-0.061,102.0,103.0,101.0,13.4,1505.2,331.2,-0.8,1.8,2471.454,13.29,0.05,217.8
2023-06-18T09:28:03,42.805,6.029,-0.043,-0.049,-0.07,101.0,102.0,102.0,13.4,1505.2,342.5,-0.7,1.8,2471.462,13.29,0.065,221.3
2023-06-18T09:31:03,42.805,6.029,-0.024,-0.046,-0.083,103.0,101.0,101.0,13.3,1505.2,325.3,-0.8,1.8,2471.428,13.29,0.051,207.6
2023-06-18T09:34:03,42.805,6.029,-0.067,-0.018,-0.085,102.0,103.0,101.0,13.4,1505.2,330.8,-0.7,1.8,2471.415,13.29,0.069,255.0
2023-06-18T09:37:03,42.805,6.029,-0.043,-0.048,-0.09,102.0,102.0,101.0,13.4,1505.2,338.2,-0.7,1.8,2471.426,13.29,0.064,221.9
2023-06-18T09:40:03,42.805,6.029,-0.023,-0.043,-0.063,102.0,101.0,101.0,13.4,1505.2,342.3,-0.8,1.8,2471.416,13.29,0.048,208.1
2023-06-18T09:43:03,42.805,6.029,-0.012,-0.032,-0.026,102.0,101.0,101.0,13.4,1505.2,331.2,-0.8,1.8,2471.455,13.29,0.034,200.6
2023-06-18T09:46:03,42.805,6.029,-0.052,-0.005,-0.015,102.0,102.0,102.0,13.4,1505.2,334.6,-0.8,1.8,2471.449,13.29,0.052,264.5
2023-06-18T09:49:03,42.805,6.029,-0.044,-0.056,-0.08,102.0,102.0,101.0,13.4,1505.2,329.0,-0.8,1.8,2471.433,13.29,0.071,218.2